Regional Weather Roundup
Issued by NWS

Home | Current Version | Previous Version | Text Only | Print | Product List | Glossary Off
Versions: 1 2 3 4 5 6 7 8 9 10 11 12 13 14 15 16 17 18 19 20 21 22 23 24 25 26 27 28 29 30 31 32 33 34 35 36 37 38 39 40 41 42 43 44 45 46 47 48 49 50

000
ASUS45 KBOI 212310
RWRID
WEATHER ROUNDUP FOR IDAHO
NATIONAL WEATHER SERVICE BOISE ID
500 PM MDT SUN SEP 21 2014

NOTE: "FAIR" INDICATES FEW OR NO CLOUDS BELOW 12000 FEET
WITH NO SIGNIFICANT WEATHER AND/OR OBSTRUCTIONS TO VISIBILITY

IDZ012-014-220000-
SOUTHWEST IDAHO


CITY           SKY/WX    TMP DP  RH WIND       PRES   REMARKS
BOISE          CLOUDY    81  45  28 S3        29.99F
CALDWELL       CLOUDY    75  48  38 S6        30.00S
MOUNTAIN HOME  CLOUDY    73  51  45 SE20      30.02R
$$

IDZ016-017-220000-
SOUTHCENTRAL IDAHO


CITY           SKY/WX    TMP DP  RH WIND       PRES   REMARKS
BURLEY         LGT RAIN  64  57  78 SW13      30.12R
JEROME         LGT RAIN  63  56  78 SE8       30.11F
TWIN FALLS     CLOUDY    63  57  81 E12       30.09F
$$

IDZ019>023-220000-
SOUTHEAST IDAHO


CITY           SKY/WX    TMP DP  RH WIND       PRES   REMARKS
IDAHO FALLS    CLOUDY    76  44  32 S17       30.14R
POCATELLO      CLOUDY    68  52  56 S16G25    30.14R
REXBURG        CLOUDY    74  44  34 W10       30.14R
$$

IDZ006-010-011-018-031-032-220000-
CENTRAL IDAHO MOUNTAINS


CITY           SKY/WX    TMP DP  RH WIND       PRES   REMARKS
MCCALL         CLOUDY    77  40  26 NW8       30.08S
HAILEY         PTSUNNY   70  45  40 SE9       30.15F
STANLEY          N/A     70  37  29 S5        30.18F
SALMON         PTSUNNY   81  43  26 CALM      29.98F
CHALLIS        CLOUDY    79  38  22 W3        30.07F
$$

IDZ002-004-006-007-026-220000-
NORTHERN IDAHO


CITY           SKY/WX    TMP DP  RH WIND       PRES   REMARKS
LEWISTON       MOSUNNY   90  41  18 S5        29.86F
LOWELL           N/A     77  59  53 CALM      29.84F
COEUR D`ALENE  SUNNY     88  45  22 N7        29.90F
MULLAN PASS    SUNNY     74  39  28 VRB5      30.15F
$$



USA.gov is the U.S. government's official web portal to all federal, state and local government web resources and services.